EN

Hourly Weather Padar

Today, 25 February, Thursday

Time Temperature Precipitation Wind Pressure Humidity
00:00 -8°C° 0 mm 1 mps 775 mmHg 64%
01:00 -7°C° 0 mm 1 mps 774 mmHg 64%
02:00 -7°C° 0 mm 1 mps 774 mmHg 64%
03:00 -7°C° 0 mm 1 mps 773 mmHg 64%
04:00 -8°C° 0 mm 2 mps 773 mmHg 64%
05:00 -8°C° 0 mm 2 mps 773 mmHg 65%
06:00 -8°C° 0 mm 2 mps 773 mmHg 65%
07:00 -7°C° 0 mm 2 mps 773 mmHg 66%
08:00 -7°C° 0 mm 3 mps 773 mmHg 67%
09:00 -6°C° 0 mm 3 mps 772 mmHg 68%
10:00 -5°C° 0 mm 3 mps 772 mmHg 67%
11:00 -4°C° 0 mm 4 mps 772 mmHg 66%
12:00 -3°C° 0 mm 4 mps 771 mmHg 65%
13:00 -2°C° 0 mm 4 mps 771 mmHg 66%
14:00 -2°C° 0 mm 4 mps 770 mmHg 66%
15:00 -1°C° 0 mm 4 mps 769 mmHg 67%
16:00 -2°C° 0 mm 4 mps 769 mmHg 71%
17:00 -2°C° 0 mm 3 mps 769 mmHg 75%
18:00 -4°C° 0 mm 3 mps 769 mmHg 79%
19:00 -3°C° 0 mm 2 mps 769 mmHg 76%
20:00 -2°C° 0 mm 2 mps 769 mmHg 74%
21:00 0°C° 0 mm 1 mps 769 mmHg 71%
22:00 0°C° 0 mm 1 mps 768 mmHg 67%
23:00 +1°C° 0 mm 1 mps 768 mmHg 63%

Tomorrow, 26 February, Friday

Time Temperature Precipitation Wind Pressure Humidity
00:00 +1°C° 0 mm 1 mps 767 mmHg 60%
01:00 +1°C° 0 mm 1 mps 767 mmHg 59%
02:00 +2°C° 0 mm 1 mps 766 mmHg 57%
03:00 +2°C° 0 mm 1 mps 766 mmHg 56%
04:00 +2°C° 0 mm 1 mps 766 mmHg 55%
05:00 +2°C° 0 mm 1 mps 766 mmHg 54%
06:00 +2°C° 0 mm 1 mps 766 mmHg 52%
07:00 +3°C° 0 mm 1 mps 766 mmHg 49%
08:00 +4°C° 0 mm 1 mps 766 mmHg 47%
09:00 +6°C° 0 mm 1 mps 766 mmHg 44%
10:00 +5°C° 0 mm 2 mps 765 mmHg 44%
11:00 +6°C° 0 mm 2 mps 765 mmHg 44%
12:00 +5°C° 0 mm 3 mps 765 mmHg 44%
13:00 +5°C° 0 mm 3 mps 764 mmHg 47%
14:00 +7°C° 0 mm 3 mps 764 mmHg 49%
15:00 +7°C° 0 mm 3 mps 764 mmHg 52%
16:00 +4°C° 0 mm 3 mps 764 mmHg 58%
17:00 +3°C° 0 mm 3 mps 764 mmHg 63%
18:00 +2°C° 0 mm 3 mps 764 mmHg 69%
19:00 +3°C° 0 mm 2 mps 764 mmHg 67%
20:00 +3°C° 0 mm 2 mps 764 mmHg 65%
21:00 +3°C° 0 mm 2 mps 764 mmHg 63%
22:00 +3°C° 0 mm 2 mps 764 mmHg 62%
23:00 +4°C° 0 mm 1 mps 764 mmHg 62%

Day after tomorrow, 27 February, Saturday

Time Temperature Precipitation Wind Pressure Humidity
00:00 +4°C° 0 mm 1 mps 763 mmHg 61%
01:00 +4°C° 0 mm 1 mps 763 mmHg 61%
02:00 +4°C° 0 mm 1 mps 763 mmHg 61%
03:00 +4°C° 0 mm 1 mps 762 mmHg 61%
04:00 +4°C° 0 mm 1 mps 762 mmHg 61%
05:00 +4°C° 0 mm 1 mps 762 mmHg 61%
06:00 +4°C° 0 mm 1 mps 762 mmHg 61%
07:00 +4°C° 0 mm 2 mps 762 mmHg 59%
08:00 +6°C° 0 mm 2 mps 761 mmHg 57%
09:00 +7°C° 0 mm 2 mps 761 mmHg 55%
10:00 +8°C° 0 mm 2 mps 761 mmHg 55%
11:00 +9°C° 0 mm 3 mps 760 mmHg 56%
12:00 +10°C° 0 mm 4 mps 760 mmHg 57%
13:00 +10°C° 0 mm 4 mps 759 mmHg 58%
14:00 +10°C° 0 mm 4 mps 759 mmHg 59%
15:00 +10°C° 0 mm 4 mps 758 mmHg 60%
16:00 +9°C° 0 mm 3 mps 758 mmHg 65%
17:00 +7°C° 0 mm 3 mps 758 mmHg 69%
18:00 +6°C° 0 mm 2 mps 758 mmHg 74%
19:00 +6°C° 0 mm 2 mps 758 mmHg 73%
20:00 +6°C° 0 mm 2 mps 758 mmHg 72%
21:00 +6°C° 0 mm 2 mps 758 mmHg 70%
22:00 +6°C° 0 mm 2 mps 758 mmHg 68%
23:00 +6°C° 0 mm 2 mps 758 mmHg 65%

28 February, Sunday

Time Temperature Precipitation Wind Pressure Humidity
00:00 +6°C° 0 mm 2 mps 757 mmHg 63%
01:00 +5°C° 0 mm 2 mps 757 mmHg 62%
02:00 +5°C° 0 mm 2 mps 756 mmHg 60%
03:00 +5°C° 0 mm 2 mps 756 mmHg 59%
04:00 +5°C° 0 mm 2 mps 756 mmHg 58%
05:00 +5°C° 0 mm 2 mps 756 mmHg 57%
06:00 +5°C° 0 mm 2 mps 756 mmHg 55%
07:00 +6°C° 0 mm 2 mps 755 mmHg 52%
08:00 +8°C° 0 mm 2 mps 755 mmHg 49%
09:00 +10°C° 0 mm 2 mps 755 mmHg 45%
10:00 +10°C° 0 mm 2 mps 754 mmHg 45%
11:00 +11°C° 0 mm 3 mps 754 mmHg 45%
12:00 +12°C° 0 mm 3 mps 754 mmHg 45%
13:00 +11°C° 0 mm 3 mps 753 mmHg 48%
14:00 +11°C° 0 mm 3 mps 753 mmHg 51%
15:00 +11°C° 0 mm 3 mps 753 mmHg 54%
16:00 +9°C° 0 mm 2 mps 754 mmHg 60%
17:00 +8°C° 0 mm 2 mps 754 mmHg 66%
18:00 +8°C° 0 mm 1 mps 755 mmHg 71%
19:00 +6°C° 0 mm 2 mps 755 mmHg 75%
20:00 +6°C° 0 mm 2 mps 756 mmHg 79%
21:00 +4°C° 0 mm 3 mps 756 mmHg 83%
22:00 +4°C° 0 mm 3 mps 757 mmHg 83%
23:00 +4°C° 0 mm 3 mps 757 mmHg 84%

1 March, Monday

Time Temperature Precipitation Wind Pressure Humidity
00:00 +5°C° 0 mm 2 mps 758 mmHg 85%
01:00 +4°C° 0 mm 3 mps 758 mmHg 87%
02:00 +4°C° 0 mm 3 mps 758 mmHg 89%
03:00 +4°C° 0 mm 3 mps 759 mmHg 91%
04:00 +4°C° 0.3 mm 4 mps 759 mmHg 91%
05:00 +3°C° 0.3 mm 4 mps 760 mmHg 91%
06:00 +3°C° 0.3 mm 4 mps 760 mmHg 92%
07:00 +3°C° 0.1 mm 4 mps 761 mmHg 90%
08:00 +4°C° 0.1 mm 3 mps 761 mmHg 87%
09:00 +4°C° 0.1 mm 3 mps 762 mmHg 85%
10:00 +4°C° 0 mm 3 mps 762 mmHg 83%
11:00 +5°C° 0 mm 4 mps 762 mmHg 80%
12:00 +5°C° 0 mm 4 mps 762 mmHg 78%
13:00 +4°C° 0.1 mm 3 mps 763 mmHg 79%
14:00 +4°C° 0.1 mm 3 mps 763 mmHg 81%
15:00 +4°C° 0.1 mm 3 mps 763 mmHg 83%
16:00 +5°C° 0.1 mm 2 mps 763 mmHg 84%
17:00 +4°C° 0.1 mm 2 mps 764 mmHg 85%
18:00 +5°C° 0.1 mm 1 mps 764 mmHg 86%
19:00 +5°C° 0 mm 1 mps 765 mmHg 86%
20:00 +4°C° 0 mm 1 mps 765 mmHg 87%
21:00 +4°C° 0 mm 1 mps 766 mmHg 87%
22:00 +4°C° 0 mm 1 mps 766 mmHg 89%
23:00 +4°C° 0 mm 1 mps 766 mmHg 91%

2 March, Tuesday

Time Temperature Precipitation Wind Pressure Humidity
00:00 +4°C° 0 mm 1 mps 766 mmHg 94%
01:00 +4°C° 0.2 mm 1 mps 766 mmHg 94%
02:00 +3°C° 0.2 mm 2 mps 766 mmHg 95%
03:00 +3°C° 0.2 mm 2 mps 766 mmHg 96%
04:00 +3°C° 0.5 mm 2 mps 766 mmHg 96%
05:00 +2°C° 0.5 mm 2 mps 766 mmHg 96%
06:00 +2°C° 0.5 mm 2 mps 767 mmHg 97%
07:00 +2°C° 0.5 mm 2 mps 767 mmHg 97%
08:00 +2°C° 0.5 mm 2 mps 767 mmHg 96%
09:00 +2°C° 0.5 mm 2 mps 767 mmHg 96%
10:00 +2°C° 0.2 mm 2 mps 767 mmHg 96%
11:00 +2°C° 0.2 mm 2 mps 767 mmHg 95%
12:00 +2°C° 0.2 mm 2 mps 767 mmHg 95%
13:00 +3°C° 0.1 mm 2 mps 766 mmHg 92%
14:00 +4°C° 0.1 mm 1 mps 766 mmHg 90%
15:00 +4°C° 0.1 mm 1 mps 766 mmHg 87%
16:00 +4°C° 0 mm 1 mps 766 mmHg 87%
17:00 +3°C° 0 mm 1 mps 766 mmHg 87%
18:00 +3°C° 0 mm 1 mps 766 mmHg 87%
19:00 +3°C° 0 mm 1 mps 766 mmHg 85%
20:00 +3°C° 0 mm 1 mps 766 mmHg 83%
21:00 +1°C° 0 mm 2 mps 766 mmHg 81%
22:00 +1°C° 0 mm 2 mps 766 mmHg 79%
23:00 +1°C° 0 mm 2 mps 765 mmHg 76%
Show more

We Need Your Consent

Meteoprog and our Service Providers may store and access personal data such as cookies, device identifiers or other similar technologies on your device and process such data to personalise content and ads, as well as provide social media features and to analyse the traffic.

  • Store and/or access information on your device

    Cookies, device identifiers or other information can be stored or accessed on your device for the purposes indicated above.

  • Personalised ads and content, ad and content measurement, audience insights, and products development

    Ads and content can be personalised based on a profile. More data can be added to better personalise ads and content. Ad and content performance can be measured. Insights about the audience who saw the ads and content can be derived. Such data can be used to develop or improve user’s experience, systems and software.

By clicking ‘I Agree’ you will allow the use of indicated cookies, device identifiers, web beacons or other similar technologies. Your settings can be changed in the browser on your device.

For certain purposes, legitimate interests may be relied on, rather than consent. You can read more about this in our Privacy and Cookie Policy.